STARLINK-11133, 59954

Orbit data source: Space-Track

STARLINK-11133, 59954 is a payload satellite owned by SpaceX/Seattle (US) in LEO that was launched on Wed, 05 Jun 2024 UTC via an FALCON 9 launch vehicle from the Air Force Eastern Test Range (AFETR). Payload-class satellites include a variety of spacecraft equipped with specific instruments for various scientific and technological missions. These include communications satellites like Starlink; space stations such as the ISS; scientific satellites like the Hubble; Earth observation satellites from companies like Planet Labs, Umbra, and HawkEye 360; GPS; miniature CubeSats for education and research; and military/defense satellites.

Loading next visibility...
Identifier
59954, 2024-107K
Orbit
LEO
Country
Flag of USUS
Related business
Manufacturer
SpaceX/Seattle
Mission
Operational Commercial Communications
Bus & Motor
STARLINK V2MD, Unknown motor
Mass
960 kg wet, ~910 kg dry
Launch date (UTC)
2024-06-05 (2 years ago)
Launch vehicle
FALCON 9
Launch site
Air Force Eastern Test Range (AFETR)
Object type
Payload
Rocket body
Debris
Shape & HBR
Box + 2 Pan, 18.1 m
Radar Cross Section
36.964 m², Large (>1 m²)

Expand to show TLE details & history
Last TLE update: 2 days ago

TLE from 2 days ago
0 STARLINK-11133
1 59954U 24107K   26171.23398162 -.00002106  00000-0 -12530-4 0  9993
2 59954  53.1597 105.6103 0001420  87.9586 272.1594 15.69700276118250
Epoch: 2026-06-20T05:36Z
TLE epoch observation values (Epoch: 2026-06-20T05:36:56.011Z)
Latitude
-0.00009°
Longitude
112.92532°
Altitude
360.634 km
Speed
7.694 km/s
True Right ascension
07h 02m 26s
True Declination
0° 00' 00"
Sunlit
Object was in daylight at epoch
Visualization orbit readout
Latitude
Unknown
Longitude
Unknown
Altitude
Unknown
Speed
Unknown
Apparent Right ascension
Unknown
Apparent Declination
Unknown
Sunlit
N/A
Visualization observer readout
Local Sidereal Time
21:47:21
Azimuth
Unknown
Elevation
Unknown
Doppler factor
Unknown
Orbital elements
Apogee altitude
360.972 km
Perigee altitude
359.058 km
Semi-major axis
6,738.152 km
Eccentricity
0.00014
Inclination
53.1597°
RAAN
105.6103°
Arg. of periapsis
87.9586°
True anomaly
272.14314°
Mean anomaly
272.1594°
Eccentric anomaly
272.15127°
Mean motion
3.92403 °/min
Orbital period
91.74 mins
BSTAR
-0.00001253
Loading maneuver chart data...
Computing Atmospheric mass density...
Loading historical data...
Loading historical data...
Loading historical data...
Loading historical data...
Loading historical data...
Loading historical data...
Loading historical data...

Documentation

Showing up to 5 results
|